User: anonymous   Login
Location: Oshawa
(43.9000°N, 78.8670°W)
Time: 14:25:20
(UTC-04:00)
Language:

Cosmos 2333 Rocket - Orbit

View from above orbital plane
View from above orbital plane
View from above satellite
View from above satellite

Ground track
Ground track

The orbit data is extracted from the following two-line orbital elements,

1 24298U 96051B   16238.41282483  .00000101  00000-0  80903-4 0  9994
2 24298  70.8412 325.4830 0019165 259.6925 100.2034 14.12425659 30051
Epoch (UTC): 25 August 2016 09:54:28
Eccentricity: 0.0019165
inclination: 70.8412°
perigee height: 837 km
apogee height: 865 km
right ascension of ascending node: 325.4830°
argument of perigee: 259.6925°
revolutions per day: 14.12425659
mean anomaly at epoch: 100.2034°
orbit number at epoch: 3005

The dashed part of the orbit path shows where the satellite is in the earth's shadow,  

DLR